This is the latest recevied weather packets stored in our database for station/object ED3YAB-7. If no packets are shown the sender has not sent any weather packets the latest 10 day(s).
| Time | Temp. | Humidity | Pressure | Rain* | Wind** | Luminosity | Snow |
|---|---|---|---|---|---|---|---|
| 1777892250 | 23.33° C | 39% | 1016.8 hPa | - | - | - | - |
| 1777891058 | 24.44° C | 37% | 1017 hPa | - | - | - | - |
| 1777891050 | 24.44° C | 37% | 1017 hPa | - | - | - | - |
| 1777889858 | 25° C | 37% | 1017.1 hPa | - | - | - | - |
| 1777889850 | 25° C | 37% | 1017.1 hPa | - | - | - | - |
| 1777888650 | 22.78° C | 42% | 1017.2 hPa | - | - | - | - |
| 1777887450 | 21.67° C | 45% | 1017.3 hPa | - | - | - | - |
| 1777886257 | 22.22° C | 45% | 1017.3 hPa | - | - | - | - |
| 1777886250 | 22.22° C | 45% | 1017.3 hPa | - | - | - | - |
| 1777885064 | 20.56° C | 47% | 1017.7 hPa | - | - | - | - |
| 1777885050 | 20.56° C | 47% | 1017.7 hPa | - | - | - | - |
| 1777884086 | 21.11° C | 46% | 1017.8 hPa | - | - | - | - |
| 1777883857 | 21.11° C | 46% | 1017.8 hPa | - | - | - | - |
| 1777883850 | 21.11° C | 46% | 1017.8 hPa | - | - | - | - |
| 1777882649 | 19.44° C | 50% | 1017.8 hPa | - | - | - | - |
| 1777881449 | 18.89° C | 50% | 1017.8 hPa | - | - | - | - |
| 1777880257 | 20° C | 50% | 1018 hPa | - | - | - | - |
| 1777880249 | 20° C | 50% | 1018 hPa | - | - | - | - |
| 1777879049 | 18.33° C | 53% | 1018.2 hPa | - | - | - | - |
| 1777877849 | 18.33° C | 55% | 1018.5 hPa | - | - | - | - |
| 1777876656 | 16.67° C | 59% | 1018.4 hPa | - | - | - | - |
| 1777876649 | 16.67° C | 59% | 1018.4 hPa | - | - | - | - |
| 1777875448 | 15° C | 62% | 1018.4 hPa | - | - | - | - |
| 1777874256 | 15° C | 63% | 1018.2 hPa | - | - | - | - |
| 1777873048 | 15° C | 64% | 1018.1 hPa | - | - | - | - |
* Rain since midnight (hover to see other rain measurements)
** Current wind speed in m/s (hover to see current wind gust speed)